Regional Weather Roundup
Issued by NWS Spokane, WA

Home | Current Version | Previous Version | Text Only | Print | Product List | Glossary On
Versions: 1 2 3 4 5 6 7 8 9 10 11 12 13 14 15 16 17 18 19 20 21 22 23 24 25 26 27 28 29 30 31 32 33 34 35 36 37 38 39 40 41 42 43 44 45 46 47 48 49 50
000
NZUS01 KOTX 201200
RWROTX
EASTERN WASHINGTON/NORTHERN IDAHO ROUNDUP
NATIONAL WEATHER SERVICE, SPOKANE WA
400 AM PST SAT DEC 20 2014

Note: "fair" indicated few or no clouds below 12,000 feet with no
significant weather and/or obstructions to visibility.

...NORTHEAST WASHINGTON AND NORTHERN IDAHO PANHANDLE...

CITY           SKY/WX    TMP DP  RH WIND       PRES   REMARKS
SPOKANE INTL   CLOUDY    35  33  92 E3        29.92F
SPOKANE DOWNTO CLOUDY    37  34  89 CALM      29.95F
COEUR D ALENE  CLOUDY    34  30  86 CALM      29.94F
DEER PARK      CLOUDY    36  34  92 N5        29.94F

...SOUTHEAST WASHINGTON AND SOUTHERN IDAHO PANHANDLE...

CITY           SKY/WX    TMP DP  RH WIND       PRES   REMARKS
WALLA WALLA    LGT RAIN  48  38  68 S14       29.92F
PULLMAN/MOSCOW CLOUDY    35  32  88 E10       29.94F WCI  27
LEWISTON       CLOUDY    36  36 100 CALM      29.96F FOG
LOWELL           N/A     36  35  96 N3        30.05F

...COLUMBIA BASIN...

CITY           SKY/WX    TMP DP  RH WIND       PRES   REMARKS
EPHRATA        CLOUDY    36  35  96 N7        29.89F
MOSES LAKE     CLOUDY    35  34  96 NE5       29.90F
TRI CITIES     LGT RAIN  39  38  96 CALM      29.92F
HERMISTON      LGT RAIN  39  37  92 NE3       29.89F
PENDLETON      LGT RAIN  42  37  82 E5        29.89F

...EAST SLOPES CASCADES...

CITY           SKY/WX    TMP DP  RH WIND       PRES   REMARKS
THE DALLES     LGT RAIN  40  38  93 E3        29.89F FOG
YAKIMA         LGT RAIN  38  35  89 W5        29.88F FOG
ELLENSBURG     LGT RAIN  36  33  89 CALM      29.85F FOG
WENATCHEE      LGT RAIN  36  34  92 CALM      29.88F FOG
OMAK           LGT RAIN  35  33  92 CALM      29.90F

...SOUTHERN BRITISH COLUMBIA...

CITY           SKY/WX    TMP DP  RH WIND       PRES   REMARKS

...WESTERN MONTANA...

CITY           SKY/WX    TMP DP  RH WIND       PRES   REMARKS
MISSOULA       FOG       24  24 100 CALM      30.00F VSB 1/4

...NEIGHBORING CITIES...

CITY           SKY/WX    TMP DP  RH WIND       PRES   REMARKS
SEATTLE        LGT RAIN  44  40  85 SE10      29.73F



USA.gov is the U.S. government's official web portal to all federal, state and local government web resources and services.